Location: Ethel Rock
(53.4667°N, 4.5667°W)
Time: 05:11:25
(UTC+00:00)

Cosmos 1634 Rocket - Pass Details

Date: 24 October 2020
Orbit: 960 x 992 km, 82.9° (Epoch: 25 November)

Event Time Altitude Azimuth Distance (km) Brightness Sun altitude
Rises 03:37:51 0° 349° (N) 3,722 7.2 -30.6°
Reaches altitude 10° 03:40:24 10° 350° (N) 2,769 6.5 -30.3°
Maximum altitude 03:46:47 82° 78° (ENE) 1,007 4.0 -29.4°
Drops below altitude 10° 03:53:06 10° 168° (SSE) 2,741 6.3 -28.5°
Sets 03:55:36 0° 169° (S) 3,681 6.9 -28.2°
